Location: Puketoi
(40.5833°S, 176.0167°E)
Time: 15:36:23
(UTC+00:00)

ATLAS CENTAUR R/B - Pass Details

Date: 08 February 2023
Orbit: 450 x 653 km, 64.7° (Epoch: 19 March)

Event Time Altitude Azimuth Distance (km) Brightness Sun altitude
Exits shadow 16:11:54 24° 276° (W) 1,009 2.2 -14.4°
Maximum altitude 16:13:21 34° 231° (SW) 804 2.0 -14.2°
Drops below altitude 10° 16:16:48 10° 164° (SSE) 1,686 4.5 -13.6°
Sets 16:19:09 0° 155° (SSE) 2,606 5.8 -13.3°
